Hourly Data Report for June 15, 2019

OTTAWA INTL A
ONTARIO
Current Station Operator: NAVCAN

45°19'00.000" N
75°40'00.000" W
114.90 m
6106001
71628
YOW

Download Data

Hourly Data (June 2019)
Hourly Data Report for June 15, 2019
TIME
LST
Temp Definition
°C
Dew Point Definition
°C
Rel Hum Definition
%
Precip. Amount Definition
mm

Wind Dir Definition
10's deg

Wind Spd Definition
km/h
Visibility Definition
km
Stn Press Definition
kPa
Hmdx Definition


Wind Chill Definition


Weather Definition


00:00 14.3 9.3 72   25 10 24.1 99.83     LegendNANA
01:00 13.2 10.1 81   15 7 24.1 99.84     Rain Showers
02:00 12.7 10.4 86   17 8 24.1 99.79     Rain Showers
03:00 12.8 11.2 90   18 9 24.1 99.81     Rain
04:00 13.2 11.3 88   16 18 24.1 99.72     Cloudy
05:00 13.4 10.2 81   18 20 24.1 99.69     LegendNANA
06:00 14.3 9.1 71   18 21 24.1 99.65     LegendNANA
07:00 15.7 9.9 68   19 21 24.1 99.62     Cloudy
08:00 15.2 11.3 78   21 21 16.1 99.67     Rain Showers
09:00 14.5 12.4 87   20 21 16.1 99.63     Rain Showers
10:00 15.6 12.8 83   19 21 24.1 99.57     Cloudy
11:00 15.2 12.9 86   18 12 24.1 99.54     Rain Showers
12:00 16.6 13.0 79   21 9 24.1 99.49     LegendNANA
13:00 18.7 13.9 73   26 10 24.1 99.40     Cloudy
14:00 16.4 13.7 84   32 15 24.1 99.44     LegendNANA
15:00 15.7 14.2 90   23 20 8.1 99.48     Rain Showers, Fog
16:00 15.5 14.4 93   23 16 4.8 99.43     Rain, Fog
17:00 15.2 14.3 95   21 22 3.2 99.44     Moderate Rain, Fog
18:00 15.0 14.4 96   23 17 3.2 99.43     Rain, Fog
19:00 15.1 14.5 96   23 17 11.3 99.43     Rain
20:00 14.9 14.2 95   23 15 12.9 99.48     LegendNANA
21:00 14.1 13.6 97   24 14 24.1 99.57     LegendNANA
22:00 13.2 12.7 96   25 10 24.1 99.65     Clear
23:00 11.7 11.1 96   26 7 24.1 99.66     LegendNANA

Notes on Data Quality.

Legend

  • E = Estimated
  • M = Missing
  • NA = Not Available*
  • [empty] = Indicates an unobserved value
Date modified: